Time,TemperatureF,DewpointF,PressureIn,WindDirection,WindDirectionDegrees,WindSpeedMPH,WindSpeedGustMPH,Humidity,HourlyPrecipIn,Conditions,Clouds,dailyrainin,SoftwareType,DateUTC
2013-02-11 00:00:00,34.9,21.2,30.03,NE,50,0.0,0.0,57,0.00,,---,0.00,VWS V14.01,2013-02-11 05:00:00,
2013-02-11 00:05:00,34.7,21.9,30.03,NE,50,0.0,0.0,59,0.00,,---,0.00,VWS V14.01,2013-02-11 05:05:00,
2013-02-11 00:10:00,35.1,23.0,30.03,East,79,2.7,3.6,61,0.00,,---,0.00,VWS V14.01,2013-02-11 05:10:00,
2013-02-11 00:15:00,35.2,23.1,30.03,WSW,256,0.0,2.2,61,0.00,,---,0.00,VWS V14.01,2013-02-11 05:15:00,
2013-02-11 00:20:00,35.4,22.9,30.03,WSW,258,0.0,2.7,60,0.00,,---,0.00,VWS V14.01,2013-02-11 05:20:00,
2013-02-11 00:26:00,35.4,22.5,30.03,SW,226,2.7,3.6,59,0.00,,---,0.00,VWS V14.01,2013-02-11 05:26:00,
2013-02-11 00:31:00,35.8,22.9,30.03,NW,306,2.7,2.7,59,0.00,,---,0.00,VWS V14.01,2013-02-11 05:31:00,
2013-02-11 00:36:00,36.1,23.2,30.03,SE,139,0.0,2.2,59,0.00,,---,0.00,VWS V14.01,2013-02-11 05:36:00,
2013-02-11 00:41:00,36.3,23.0,30.01,WSW,251,3.6,4.9,58,0.00,,---,0.00,VWS V14.01,2013-02-11 05:41:00,
2013-02-11 00:46:00,36.7,22.9,30.01,West,280,2.7,2.7,57,0.00,,---,0.00,VWS V14.01,2013-02-11 05:46:00,
2013-02-11 00:51:00,36.7,22.9,30.01,NE,49,0.0,0.0,57,0.00,,---,0.00,VWS V14.01,2013-02-11 05:51:00,
2013-02-11 00:56:00,36.7,23.3,30.01,NE,49,0.0,0.0,58,0.00,,---,0.00,VWS V14.01,2013-02-11 05:56:00,
2013-02-11 01:01:00,36.9,23.9,30.01,NE,51,0.0,0.0,59,0.00,,---,0.00,VWS V14.01,2013-02-11 06:01:00,
2013-02-11 01:06:00,36.7,23.7,30.01,NE,50,0.0,0.0,59,0.00,,---,0.00,VWS V14.01,2013-02-11 06:06:00,
2013-02-11 01:11:00,36.5,23.5,30.01,NE,50,0.0,0.0,59,0.00,,---,0.00,VWS V14.01,2013-02-11 06:11:00,
2013-02-11 01:16:00,36.3,23.4,30.01,NE,50,0.0,0.0,59,0.00,,---,0.00,VWS V14.01,2013-02-11 06:16:00,
2013-02-11 01:21:00,36.3,23.4,30.01,NE,50,0.0,0.0,59,0.00,,---,0.00,VWS V14.01,2013-02-11 06:21:00,
2013-02-11 01:27:00,36.3,23.8,30.01,NE,54,0.0,2.7,60,0.00,,---,0.00,VWS V14.01,2013-02-11 06:27:00,
2013-02-11 01:32:00,36.3,23.8,30.01,ENE,59,2.7,2.7,60,0.00,,---,0.00,VWS V14.01,2013-02-11 06:32:00,
2013-02-11 01:37:00,36.1,23.2,30.01,ENE,59,0.0,0.0,59,0.00,,---,0.00,VWS V14.01,2013-02-11 06:37:00,
2013-02-11 01:42:00,36.1,23.6,30.01,ENE,59,0.0,0.0,60,0.00,,---,0.00,VWS V14.01,2013-02-11 06:42:00,
2013-02-11 01:47:00,36.0,23.4,30.01,ENE,59,0.0,0.0,60,0.00,,---,0.00,VWS V14.01,2013-02-11 06:47:00,
2013-02-11 01:52:00,36.0,23.4,30.01,ENE,59,0.0,0.0,60,0.00,,---,0.00,VWS V14.01,2013-02-11 06:52:00,
2013-02-11 01:57:00,36.0,23.4,30.01,ENE,59,0.0,0.0,60,0.00,,---,0.00,VWS V14.01,2013-02-11 06:57:00,
2013-02-11 02:02:00,36.0,23.4,30.01,ENE,59,0.0,0.0,60,0.00,,---,0.00,VWS V14.01,2013-02-11 07:02:00,
2013-02-11 02:07:00,35.8,23.7,30.01,ENE,59,0.0,0.0,61,0.00,,---,0.00,VWS V14.01,2013-02-11 07:07:00,
2013-02-11 02:12:00,35.8,24.0,29.98,ENE,59,0.0,0.0,62,0.00,,---,0.00,VWS V14.01,2013-02-11 07:12:00,
2013-02-11 02:17:00,35.8,24.0,29.98,ENE,59,0.0,0.0,62,0.00,,---,0.00,VWS V14.01,2013-02-11 07:17:00,
2013-02-11 02:22:00,36.0,24.6,29.98,ENE,59,0.0,0.0,63,0.00,,---,0.00,VWS V14.01,2013-02-11 07:22:00,
2013-02-11 02:27:00,36.0,24.2,29.98,ENE,59,0.0,0.0,62,0.00,,---,0.00,VWS V14.01,2013-02-11 07:27:00,
2013-02-11 02:32:00,36.0,24.2,29.98,ENE,59,0.0,0.0,62,0.00,,---,0.00,VWS V14.01,2013-02-11 07:32:00,
2013-02-11 02:37:00,36.1,24.4,29.98,ENE,59,0.0,0.0,62,0.00,,---,0.00,VWS V14.01,2013-02-11 07:37:00,
2013-02-11 02:42:00,36.0,24.6,29.98,ENE,59,0.0,0.0,63,0.00,,---,0.00,VWS V14.01,2013-02-11 07:42:00,
2013-02-11 02:48:00,36.0,24.6,29.98,ENE,59,0.0,0.0,63,0.00,,---,0.00,VWS V14.01,2013-02-11 07:48:00,
2013-02-11 02:52:00,36.0,24.6,29.98,ENE,59,0.0,0.0,63,0.00,,---,0.00,VWS V14.01,2013-02-11 07:52:00,
2013-02-11 02:58:00,36.0,24.6,29.98,ENE,59,0.0,0.0,63,0.00,,---,0.00,VWS V14.01,2013-02-11 07:58:00,
2013-02-11 03:03:00,36.0,24.6,29.98,ENE,59,0.0,0.0,63,0.00,,---,0.00,VWS V14.01,2013-02-11 08:03:00,
2013-02-11 03:08:00,35.8,24.4,29.98,ENE,59,0.0,0.0,63,0.00,,---,0.00,VWS V14.01,2013-02-11 08:08:00,
2013-02-11 03:13:00,35.8,24.8,29.95,ENE,59,0.0,0.0,64,0.00,,---,0.00,VWS V14.01,2013-02-11 08:13:00,
2013-02-11 03:18:00,36.0,25.4,29.95,ENE,59,0.0,0.0,65,0.00,,---,0.00,VWS V14.01,2013-02-11 08:18:00,
2013-02-11 03:23:00,36.0,25.0,29.95,ENE,59,0.0,0.0,64,0.00,,---,0.00,VWS V14.01,2013-02-11 08:23:00,
2013-02-11 03:28:00,36.0,25.4,29.95,ENE,59,0.0,0.0,65,0.00,,---,0.00,VWS V14.01,2013-02-11 08:28:00,
2013-02-11 03:33:00,36.0,25.0,29.95,ENE,59,0.0,0.0,64,0.00,,---,0.00,VWS V14.01,2013-02-11 08:33:00,
2013-02-11 03:38:00,36.0,25.4,29.95,ENE,59,0.0,0.0,65,0.00,,---,0.00,VWS V14.01,2013-02-11 08:38:00,
2013-02-11 03:43:00,36.0,25.4,29.95,ENE,59,0.0,0.0,65,0.00,,---,0.00,VWS V14.01,2013-02-11 08:43:00,
2013-02-11 03:48:00,36.0,25.4,29.95,ENE,59,0.0,0.0,65,0.00,,---,0.00,VWS V14.01,2013-02-11 08:48:00,
2013-02-11 03:53:00,36.0,25.4,29.95,ENE,59,0.0,0.0,65,0.00,,---,0.00,VWS V14.01,2013-02-11 08:53:00,
2013-02-11 03:58:00,35.8,25.2,29.95,ENE,59,0.0,0.0,65,0.00,,---,0.00,VWS V14.01,2013-02-11 08:58:00,
2013-02-11 04:03:00,35.8,25.5,29.95,ENE,59,0.0,0.0,66,0.00,,---,0.00,VWS V14.01,2013-02-11 09:03:00,
2013-02-11 04:08:00,35.8,25.5,29.95,ENE,59,0.0,0.0,66,0.00,,---,0.00,VWS V14.01,2013-02-11 09:08:00,
2013-02-11 04:13:00,35.8,25.5,29.92,ENE,59,0.0,0.0,66,0.00,,---,0.00,VWS V14.01,2013-02-11 09:13:00,
2013-02-11 04:18:00,35.8,25.5,29.92,ENE,59,0.0,0.0,66,0.00,,---,0.00,VWS V14.01,2013-02-11 09:18:00,
2013-02-11 04:23:00,35.8,25.9,29.92,ENE,59,0.0,0.0,67,0.00,,---,0.00,VWS V14.01,2013-02-11 09:23:00,
2013-02-11 04:28:00,35.8,25.9,29.92,ENE,59,0.0,0.0,67,0.00,,---,0.00,VWS V14.01,2013-02-11 09:28:00,
2013-02-11 04:33:00,36.0,26.4,29.92,North,353,0.0,0.0,68,0.00,,---,0.00,VWS V14.01,2013-02-11 09:33:00,
2013-02-11 04:38:00,36.1,26.6,29.92,NE,53,0.0,0.0,68,0.00,,---,0.00,VWS V14.01,2013-02-11 09:38:00,
2013-02-11 04:43:00,36.1,26.6,29.92,NE,53,0.0,0.0,68,0.00,,---,0.00,VWS V14.01,2013-02-11 09:43:00,
2013-02-11 04:49:00,36.0,26.4,29.92,NE,53,0.0,0.0,68,0.00,,---,0.00,VWS V14.01,2013-02-11 09:49:00,
2013-02-11 04:54:00,36.0,26.8,29.92,NE,53,0.0,0.0,69,0.00,,---,0.00,VWS V14.01,2013-02-11 09:54:00,
2013-02-11 04:59:00,36.0,27.1,29.89,WNW,302,2.7,2.7,70,0.00,,---,0.00,VWS V14.01,2013-02-11 09:59:00,
2013-02-11 05:04:00,37.6,31.0,29.89,SSW,209,4.0,5.4,77,0.00,,---,0.00,VWS V14.01,2013-02-11 10:04:00,
2013-02-11 05:09:00,37.8,31.5,29.89,ENE,77,7.6,7.6,78,0.00,,---,0.00,VWS V14.01,2013-02-11 10:09:00,
2013-02-11 05:14:00,36.7,28.9,29.92,East,93,0.0,2.7,73,0.00,,---,0.00,VWS V14.01,2013-02-11 10:14:00,
2013-02-11 05:19:00,36.3,28.2,29.92,East,93,0.0,0.0,72,0.00,,---,0.00,VWS V14.01,2013-02-11 10:19:00,
2013-02-11 05:24:00,36.3,28.2,29.92,East,91,0.0,0.0,72,0.00,,---,0.00,VWS V14.01,2013-02-11 10:24:00,
2013-02-11 05:29:00,36.3,28.2,29.92,ENE,57,2.7,2.7,72,0.00,,---,0.00,VWS V14.01,2013-02-11 10:29:00,
2013-02-11 05:34:00,36.3,28.5,29.92,ENE,57,0.0,0.0,73,0.00,,---,0.00,VWS V14.01,2013-02-11 10:34:00,
2013-02-11 05:39:00,36.7,29.2,29.92,ENE,57,0.0,0.0,74,0.00,,---,0.00,VWS V14.01,2013-02-11 10:39:00,
2013-02-11 05:44:00,36.7,28.9,29.92,ENE,73,0.0,0.0,73,0.00,,---,0.00,VWS V14.01,2013-02-11 10:44:00,
2013-02-11 05:49:00,36.7,29.2,29.92,NE,55,2.7,3.6,74,0.00,,---,0.00,VWS V14.01,2013-02-11 10:49:00,
2013-02-11 05:54:00,37.0,29.9,29.92,NE,54,2.7,2.7,75,0.00,,---,0.00,VWS V14.01,2013-02-11 10:54:00,
2013-02-11 05:59:00,37.2,30.0,29.92,WSW,245,2.2,3.6,75,0.00,,---,0.00,VWS V14.01,2013-02-11 10:59:00,
2013-02-11 06:04:00,36.5,29.0,29.92,WSW,245,0.0,0.0,74,0.00,,---,0.00,VWS V14.01,2013-02-11 11:04:00,
2013-02-11 06:09:00,36.5,29.3,29.92,WSW,245,2.2,2.2,75,0.00,,---,0.00,VWS V14.01,2013-02-11 11:09:00,
2013-02-11 06:14:00,36.7,29.5,29.92,WSW,245,0.0,0.0,75,0.00,,---,0.00,VWS V14.01,2013-02-11 11:14:00,
2013-02-11 06:20:00,36.3,29.2,29.92,WSW,245,0.0,0.0,75,0.00,,---,0.00,VWS V14.01,2013-02-11 11:20:00,
2013-02-11 06:25:00,36.3,29.2,29.92,WSW,245,0.0,0.0,75,0.00,,---,0.00,VWS V14.01,2013-02-11 11:25:00,
2013-02-11 06:30:00,36.3,29.2,29.92,WSW,245,0.0,0.0,75,0.00,,---,0.00,VWS V14.01,2013-02-11 11:30:00,
2013-02-11 06:35:00,36.7,29.8,29.92,WSW,245,0.0,0.0,76,0.00,,---,0.00,VWS V14.01,2013-02-11 11:35:00,
2013-02-11 06:40:00,37.0,30.2,29.92,WSW,245,0.0,0.0,76,0.00,,---,0.00,VWS V14.01,2013-02-11 11:40:00,
2013-02-11 06:45:00,37.4,30.9,29.89,WSW,245,0.0,0.0,77,0.00,,---,0.00,VWS V14.01,2013-02-11 11:45:00,
2013-02-11 06:50:00,37.8,31.2,29.89,WSW,245,0.0,0.0,77,0.00,,---,0.00,VWS V14.01,2013-02-11 11:50:00,
2013-02-11 06:55:00,37.6,30.7,29.89,WSW,245,0.0,0.0,76,0.00,,---,0.00,VWS V14.01,2013-02-11 11:55:00,
2013-02-11 07:00:00,37.6,31.0,29.89,WSW,245,0.0,0.0,77,0.00,,---,0.00,VWS V14.01,2013-02-11 12:00:00,
2013-02-11 07:05:00,37.8,31.2,29.89,WSW,245,0.0,0.0,77,0.00,,---,0.00,VWS V14.01,2013-02-11 12:05:00,
2013-02-11 07:10:00,37.9,31.7,29.89,WSW,245,0.0,0.0,78,0.00,,---,0.00,VWS V14.01,2013-02-11 12:10:00,
2013-02-11 07:15:00,37.8,31.2,29.89,WSW,245,0.0,0.0,77,0.00,,---,0.00,VWS V14.01,2013-02-11 12:15:00,
2013-02-11 07:20:00,37.4,30.9,29.89,WSW,245,0.0,0.0,77,0.00,,---,0.00,VWS V14.01,2013-02-11 12:20:00,
2013-02-11 07:26:00,37.0,30.5,29.89,WSW,245,0.0,0.0,77,0.00,,---,0.00,VWS V14.01,2013-02-11 12:26:00,
2013-02-11 07:31:00,36.9,30.3,29.89,WSW,245,0.0,0.0,77,0.00,,---,0.00,VWS V14.01,2013-02-11 12:31:00,
2013-02-11 07:36:00,36.7,30.2,29.89,WSW,245,0.0,0.0,77,0.00,,---,0.00,VWS V14.01,2013-02-11 12:36:00,
2013-02-11 07:41:00,36.7,30.2,29.89,WSW,245,0.0,0.0,77,0.00,,---,0.00,VWS V14.01,2013-02-11 12:41:00,
2013-02-11 07:46:00,36.3,29.8,29.89,WSW,245,0.0,0.0,77,0.00,,---,0.00,VWS V14.01,2013-02-11 12:46:00,
2013-02-11 07:51:00,36.3,29.8,29.89,WSW,245,0.0,0.0,77,0.00,,---,0.00,VWS V14.01,2013-02-11 12:51:00,
2013-02-11 07:56:00,36.3,29.8,29.89,WSW,245,0.0,0.0,77,0.00,,---,0.00,VWS V14.01,2013-02-11 12:56:00,
2013-02-11 08:01:00,36.5,30.3,29.89,WSW,245,0.0,0.0,78,0.00,,---,0.00,VWS V14.01,2013-02-11 13:01:00,
2013-02-11 08:06:00,36.9,30.6,29.89,WSW,245,0.0,0.0,78,0.00,,---,0.00,VWS V14.01,2013-02-11 13:06:00,
2013-02-11 08:11:00,37.0,31.1,29.89,WSW,245,0.0,0.0,79,0.00,,---,0.00,VWS V14.01,2013-02-11 13:11:00,
2013-02-11 08:16:00,37.0,30.8,29.89,WSW,245,0.0,0.0,78,0.00,,---,0.00,VWS V14.01,2013-02-11 13:16:00,
2013-02-11 08:21:00,37.2,31.3,29.89,WSW,245,0.0,0.0,79,0.00,,---,0.00,VWS V14.01,2013-02-11 13:21:00,
2013-02-11 08:26:00,37.2,31.3,29.89,WSW,245,0.0,0.0,79,0.00,,---,0.00,VWS V14.01,2013-02-11 13:26:00,
2013-02-11 08:31:00,37.6,31.7,29.89,WSW,244,0.0,0.0,79,0.00,,---,0.00,VWS V14.01,2013-02-11 13:31:00,
2013-02-11 08:36:00,38.1,32.5,29.89,WSW,254,0.0,0.0,80,0.00,,---,0.00,VWS V14.01,2013-02-11 13:36:00,
2013-02-11 08:41:00,38.3,32.7,29.89,WSW,254,0.0,0.0,80,0.00,,---,0.00,VWS V14.01,2013-02-11 13:41:00,
2013-02-11 08:46:00,38.1,32.5,29.89,WSW,254,0.0,0.0,80,0.00,,---,0.00,VWS V14.01,2013-02-11 13:46:00,
2013-02-11 08:51:00,38.3,32.7,29.89,WSW,254,0.0,0.0,80,0.00,,---,0.00,VWS V14.01,2013-02-11 13:51:00,
2013-02-11 08:56:00,38.8,33.5,29.89,ENE,57,0.0,0.0,81,0.00,,---,0.00,VWS V14.01,2013-02-11 13:56:00,
2013-02-11 09:01:00,39.4,34.0,29.89,ENE,57,0.0,0.0,81,0.00,,---,0.00,VWS V14.01,2013-02-11 14:01:00,
2013-02-11 09:07:00,39.7,34.4,29.89,ENE,57,0.0,0.0,81,0.00,,---,0.00,VWS V14.01,2013-02-11 14:07:00,
2013-02-11 09:12:00,39.9,34.6,29.86,ENE,57,0.0,0.0,81,0.00,,---,0.00,VWS V14.01,2013-02-11 14:12:00,
2013-02-11 09:17:00,40.5,35.4,29.86,ENE,57,0.0,0.0,82,0.00,,---,0.00,VWS V14.01,2013-02-11 14:17:00,
2013-02-11 09:22:00,40.3,34.9,29.86,ENE,57,0.0,0.0,81,0.00,,---,0.00,VWS V14.01,2013-02-11 14:22:00,
2013-02-11 09:27:00,40.3,34.6,29.89,ENE,57,0.0,0.0,80,0.00,,---,0.00,VWS V14.01,2013-02-11 14:27:00,
2013-02-11 09:32:00,39.9,34.0,29.89,ENE,57,0.0,0.0,79,0.00,,---,0.00,VWS V14.01,2013-02-11 14:32:00,
2013-02-11 09:37:00,39.9,34.0,29.89,ENE,57,0.0,0.0,79,0.00,,---,0.00,VWS V14.01,2013-02-11 14:37:00,
2013-02-11 09:42:00,40.1,34.1,29.89,ENE,57,0.0,0.0,79,0.04,,---,0.04,VWS V14.01,2013-02-11 14:42:00,
2013-02-11 09:47:00,40.3,34.6,29.89,SW,236,0.0,0.0,80,0.04,,---,0.04,VWS V14.01,2013-02-11 14:47:00,
2013-02-11 09:52:00,41.2,35.8,29.89,ENE,68,2.2,2.7,81,0.04,,---,0.04,VWS V14.01,2013-02-11 14:52:00,
2013-02-11 09:57:00,42.1,37.0,29.86,West,273,0.0,2.7,82,0.04,,---,0.04,VWS V14.01,2013-02-11 14:57:00,
2013-02-11 10:03:00,43.3,38.8,29.86,WSW,243,2.2,3.6,84,0.04,,---,0.04,VWS V14.01,2013-02-11 15:03:00,
2013-02-11 10:08:00,43.5,39.0,29.86,South,182,0.0,0.0,84,0.04,,---,0.04,VWS V14.01,2013-02-11 15:08:00,
2013-02-11 10:13:00,44.4,40.5,29.86,WSW,244,2.7,2.7,86,0.04,,---,0.04,VWS V14.01,2013-02-11 15:13:00,
2013-02-11 10:18:00,45.1,41.2,29.86,WSW,240,2.7,3.1,86,0.04,,---,0.04,VWS V14.01,2013-02-11 15:18:00,
2013-02-11 10:23:00,45.5,41.9,29.86,WSW,240,0.0,0.0,87,0.04,,---,0.04,VWS V14.01,2013-02-11 15:23:00,
2013-02-11 10:28:00,45.9,42.2,29.86,WSW,240,0.0,0.0,87,0.04,,---,0.04,VWS V14.01,2013-02-11 15:28:00,
2013-02-11 10:33:00,45.5,41.9,29.86,WSW,240,0.0,0.0,87,0.04,,---,0.04,VWS V14.01,2013-02-11 15:33:00,
2013-02-11 10:38:00,45.1,41.2,29.86,WSW,240,0.0,0.0,86,0.04,,---,0.04,VWS V14.01,2013-02-11 15:38:00,
2013-02-11 10:44:00,45.0,41.0,29.86,SSW,203,0.0,0.0,86,0.00,,---,0.04,VWS V14.01,2013-02-11 15:44:00,
2013-02-11 10:49:00,45.0,41.0,29.86,SSW,203,0.0,0.0,86,0.00,,---,0.04,VWS V14.01,2013-02-11 15:49:00,
2013-02-11 10:54:00,45.0,41.0,29.86,SSW,211,0.0,0.0,86,0.00,,---,0.04,VWS V14.01,2013-02-11 15:54:00,
2013-02-11 10:59:00,45.0,41.0,29.86,SW,225,0.0,0.0,86,0.00,,---,0.04,VWS V14.01,2013-02-11 15:59:00,
2013-02-11 11:04:00,45.0,41.0,29.86,SW,225,0.0,0.0,86,0.00,,---,0.04,VWS V14.01,2013-02-11 16:04:00,
2013-02-11 11:09:00,45.1,41.2,29.86,WSW,245,2.7,2.7,86,0.00,,---,0.04,VWS V14.01,2013-02-11 16:09:00,
2013-02-11 11:14:00,45.3,41.7,29.86,WSW,245,0.0,0.0,87,0.00,,---,0.04,VWS V14.01,2013-02-11 16:14:00,
2013-02-11 11:19:00,46.0,42.7,29.86,SW,224,3.6,4.0,88,0.00,,---,0.04,VWS V14.01,2013-02-11 16:19:00,
2013-02-11 11:24:00,46.2,42.9,29.86,WSW,239,3.1,3.1,88,0.00,,---,0.04,VWS V14.01,2013-02-11 16:24:00,
2013-02-11 11:29:00,46.4,43.0,29.86,WSW,253,0.0,0.0,88,0.00,,---,0.04,VWS V14.01,2013-02-11 16:29:00,
2013-02-11 11:34:00,46.4,43.3,29.86,WSW,244,3.1,3.6,89,0.00,,---,0.04,VWS V14.01,2013-02-11 16:34:00,
2013-02-11 11:40:00,46.8,44.0,29.86,SSW,211,0.0,2.2,90,0.00,,---,0.04,VWS V14.01,2013-02-11 16:40:00,
2013-02-11 11:45:00,46.9,44.2,29.83,SSW,211,0.0,0.0,90,0.00,,---,0.04,VWS V14.01,2013-02-11 16:45:00,
2013-02-11 11:50:00,46.9,44.2,29.83,SSW,211,0.0,0.0,90,0.00,,---,0.04,VWS V14.01,2013-02-11 16:50:00,
2013-02-11 11:55:00,47.3,44.8,29.83,WSW,244,0.0,0.0,91,0.00,,---,0.04,VWS V14.01,2013-02-11 16:55:00,
2013-02-11 12:00:00,48.0,45.8,29.83,SW,219,3.1,4.0,92,0.00,,---,0.04,VWS V14.01,2013-02-11 17:00:00,
2013-02-11 12:05:00,48.6,46.3,29.83,West,266,5.4,5.4,92,0.00,,---,0.04,VWS V14.01,2013-02-11 17:05:00,
2013-02-11 12:10:00,49.1,46.9,29.83,SW,231,2.7,3.1,92,0.00,,---,0.04,VWS V14.01,2013-02-11 17:10:00,
2013-02-11 12:15:00,49.3,47.1,29.83,SW,214,3.1,4.0,92,0.00,,---,0.04,VWS V14.01,2013-02-11 17:15:00,
2013-02-11 12:20:00,49.5,47.0,29.83,West,272,3.6,3.6,91,0.00,,---,0.04,VWS V14.01,2013-02-11 17:20:00,
2013-02-11 12:25:00,50.0,47.2,29.83,West,278,2.7,4.0,90,0.00,,---,0.04,VWS V14.01,2013-02-11 17:25:00,
2013-02-11 12:30:00,50.7,47.9,29.83,SW,227,2.7,3.1,90,0.00,,---,0.04,VWS V14.01,2013-02-11 17:30:00,
2013-02-11 12:35:00,51.6,47.3,29.83,SSW,212,2.2,4.0,85,0.00,,---,0.04,VWS V14.01,2013-02-11 17:35:00,
2013-02-11 12:40:00,52.0,46.0,29.83,WNW,285,2.2,4.0,80,0.00,,---,0.04,VWS V14.01,2013-02-11 17:40:00,
2013-02-11 12:45:00,52.3,44.3,29.83,SW,232,6.3,8.1,74,0.00,,---,0.04,VWS V14.01,2013-02-11 17:45:00,
2013-02-11 12:51:00,52.5,42.7,29.83,SW,214,3.1,4.0,69,0.00,,---,0.04,VWS V14.01,2013-02-11 17:51:00,
2013-02-11 12:56:00,52.9,42.2,29.83,WSW,249,6.3,6.3,67,0.00,,---,0.04,VWS V14.01,2013-02-11 17:56:00,
2013-02-11 13:01:00,53.4,42.4,29.80,SW,227,3.6,5.4,66,0.00,,---,0.04,VWS V14.01,2013-02-11 18:01:00,
2013-02-11 13:06:00,54.0,42.1,29.80,SW,230,5.4,6.3,64,0.00,,---,0.04,VWS V14.01,2013-02-11 18:06:00,
2013-02-11 13:11:00,54.1,41.4,29.80,SSW,212,5.4,7.6,62,0.00,,---,0.04,VWS V14.01,2013-02-11 18:11:00,
2013-02-11 13:16:00,54.1,40.6,29.80,South,190,6.3,6.3,60,0.00,,---,0.04,VWS V14.01,2013-02-11 18:16:00,
2013-02-11 13:21:00,54.1,40.1,29.80,WSW,243,3.6,5.8,59,0.00,,---,0.04,VWS V14.01,2013-02-11 18:21:00,
2013-02-11 13:26:00,54.5,40.5,29.80,WSW,242,4.9,4.9,59,0.00,,---,0.04,VWS V14.01,2013-02-11 18:26:00,
2013-02-11 13:31:00,55.2,39.8,29.80,SW,222,11.0,11.0,56,0.00,,---,0.04,VWS V14.01,2013-02-11 18:31:00,
2013-02-11 13:36:00,55.6,38.7,29.80,WSW,250,6.3,6.3,53,0.00,,---,0.04,VWS V14.01,2013-02-11 18:36:00,
2013-02-11 13:41:00,55.8,37.4,29.77,SSW,210,6.3,6.3,50,0.00,,---,0.04,VWS V14.01,2013-02-11 18:41:00,
2013-02-11 13:46:00,56.1,37.8,29.77,SW,235,5.4,8.3,50,0.00,,---,0.04,VWS V14.01,2013-02-11 18:46:00,
2013-02-11 13:51:00,56.3,37.4,29.77,SSW,213,3.6,6.3,49,0.00,,---,0.04,VWS V14.01,2013-02-11 18:51:00,
2013-02-11 13:56:00,56.3,36.9,29.77,SE,140,5.4,8.1,48,0.00,,---,0.04,VWS V14.01,2013-02-11 18:56:00,
2013-02-11 14:01:00,56.5,37.0,29.77,SW,216,8.1,8.7,48,0.00,,---,0.04,VWS V14.01,2013-02-11 19:01:00,
2013-02-11 14:06:00,56.7,35.6,29.77,SW,218,4.9,4.9,45,0.00,,---,0.04,VWS V14.01,2013-02-11 19:06:00,
2013-02-11 14:11:00,57.2,34.9,29.77,SSW,200,5.4,10.5,43,0.00,,---,0.04,VWS V14.01,2013-02-11 19:11:00,
2013-02-11 14:16:00,57.6,34.1,29.77,SW,224,2.7,7.6,41,0.00,,---,0.04,VWS V14.01,2013-02-11 19:16:00,
2013-02-11 14:21:00,57.6,32.8,29.77,SW,221,3.6,6.3,39,0.00,,---,0.04,VWS V14.01,2013-02-11 19:21:00,
2013-02-11 14:27:00,57.6,32.8,29.77,South,176,6.3,8.3,39,0.00,,---,0.04,VWS V14.01,2013-02-11 19:27:00,
2013-02-11 14:32:00,57.4,32.0,29.77,SSW,208,7.6,8.3,38,0.00,,---,0.04,VWS V14.01,2013-02-11 19:32:00,
2013-02-11 14:37:00,57.4,31.3,29.77,SW,215,7.2,9.6,37,0.00,,---,0.04,VWS V14.01,2013-02-11 19:37:00,
2013-02-11 14:42:00,57.6,31.5,29.77,SW,227,13.2,14.5,37,0.00,,---,0.04,VWS V14.01,2013-02-11 19:42:00,
2013-02-11 14:47:00,57.6,31.5,29.77,WSW,239,10.1,12.8,37,0.00,,---,0.04,VWS V14.01,2013-02-11 19:47:00,
2013-02-11 14:52:00,57.7,31.7,29.77,SW,235,7.2,7.2,37,0.00,,---,0.04,VWS V14.01,2013-02-11 19:52:00,
2013-02-11 14:57:00,57.9,31.1,29.80,SSE,168,10.1,12.3,36,0.00,,---,0.04,VWS V14.01,2013-02-11 19:57:00,
2013-02-11 15:02:00,57.7,31.7,29.80,SW,225,7.2,7.2,37,0.00,,---,0.04,VWS V14.01,2013-02-11 20:02:00,
2013-02-11 15:07:00,57.7,31.0,29.80,SW,219,8.7,11.0,36,0.00,,---,0.04,VWS V14.01,2013-02-11 20:07:00,
2013-02-11 15:12:00,57.7,31.7,29.80,SW,219,6.3,8.3,37,0.00,,---,0.04,VWS V14.01,2013-02-11 20:12:00,
2013-02-11 15:17:00,57.7,31.0,29.80,WSW,253,6.3,8.7,36,0.00,,---,0.04,VWS V14.01,2013-02-11 20:17:00,
2013-02-11 15:22:00,57.9,31.1,29.80,SW,216,5.4,7.6,36,0.00,,---,0.04,VWS V14.01,2013-02-11 20:22:00,
2013-02-11 15:27:00,57.7,30.3,29.77,SSW,209,5.8,6.3,35,0.00,,---,0.04,VWS V14.01,2013-02-11 20:27:00,
2013-02-11 15:32:00,57.6,30.1,29.77,SW,232,5.8,5.8,35,0.00,,---,0.04,VWS V14.01,2013-02-11 20:32:00,
2013-02-11 15:37:00,57.6,29.4,29.77,SW,234,11.0,13.6,34,0.00,,---,0.04,VWS V14.01,2013-02-11 20:37:00,
2013-02-11 15:42:00,57.6,28.0,29.80,WSW,244,13.2,13.2,32,0.00,,---,0.04,VWS V14.01,2013-02-11 20:42:00,
2013-02-11 15:47:00,57.6,28.7,29.80,WSW,245,5.8,6.3,33,0.00,,---,0.04,VWS V14.01,2013-02-11 20:47:00,
2013-02-11 15:52:00,57.6,28.0,29.80,SW,225,5.4,9.6,32,0.00,,---,0.04,VWS V14.01,2013-02-11 20:52:00,
2013-02-11 15:57:00,57.4,27.0,29.80,WSW,250,12.8,12.8,31,0.00,,---,0.04,VWS V14.01,2013-02-11 20:57:00,
2013-02-11 16:03:00,57.2,26.1,29.80,SW,222,5.4,8.3,30,0.00,,---,0.04,VWS V14.01,2013-02-11 21:03:00,
2013-02-11 16:08:00,57.2,26.9,29.80,SW,231,8.7,8.7,31,0.00,,---,0.04,VWS V14.01,2013-02-11 21:08:00,
2013-02-11 16:13:00,57.2,27.6,29.80,WSW,239,8.1,8.3,32,0.00,,---,0.04,VWS V14.01,2013-02-11 21:13:00,
2013-02-11 16:18:00,56.8,27.3,29.80,WSW,249,4.0,7.6,32,0.00,,---,0.04,VWS V14.01,2013-02-11 21:18:00,
2013-02-11 16:23:00,56.8,27.3,29.80,West,259,8.1,8.1,32,0.00,,---,0.04,VWS V14.01,2013-02-11 21:23:00,
2013-02-11 16:28:00,56.8,28.8,29.80,West,261,3.6,4.9,34,0.00,,---,0.04,VWS V14.01,2013-02-11 21:28:00,
2013-02-11 16:33:00,56.7,26.4,29.80,South,182,4.0,8.1,31,0.00,,---,0.04,VWS V14.01,2013-02-11 21:33:00,
2013-02-11 16:38:00,56.7,27.2,29.80,SSE,149,3.1,3.1,32,0.00,,---,0.04,VWS V14.01,2013-02-11 21:38:00,
2013-02-11 16:43:00,56.3,26.1,29.77,SSW,199,5.8,12.8,31,0.00,,---,0.04,VWS V14.01,2013-02-11 21:43:00,
2013-02-11 16:48:00,56.3,27.6,29.77,SW,223,12.8,12.8,33,0.00,,---,0.04,VWS V14.01,2013-02-11 21:48:00,
2013-02-11 16:53:00,56.3,26.1,29.77,WSW,238,8.1,8.1,31,0.00,,---,0.04,VWS V14.01,2013-02-11 21:53:00,
2013-02-11 16:58:00,56.1,25.1,29.80,East,82,5.4,7.6,30,0.00,,---,0.04,VWS V14.01,2013-02-11 21:58:00,
2013-02-11 17:03:00,55.9,25.0,29.80,SW,226,5.8,8.1,30,0.00,,---,0.04,VWS V14.01,2013-02-11 22:03:00,
2013-02-11 17:08:00,55.6,26.2,29.80,SW,215,4.0,7.6,32,0.00,,---,0.04,VWS V14.01,2013-02-11 22:08:00,
2013-02-11 17:13:00,55.0,25.7,29.77,SW,218,5.4,5.4,32,0.00,,---,0.04,VWS V14.01,2013-02-11 22:13:00,
2013-02-11 17:19:00,55.0,25.0,29.77,SW,229,12.8,12.8,31,0.00,,---,0.04,VWS V14.01,2013-02-11 22:19:00,
2013-02-11 17:24:00,54.9,22.4,29.77,SW,229,11.0,14.1,28,0.00,,---,0.04,VWS V14.01,2013-02-11 22:24:00,
2013-02-11 17:29:00,55.2,23.5,29.77,SSW,206,3.1,3.1,29,0.00,,---,0.04,VWS V14.01,2013-02-11 22:29:00,
2013-02-11 17:34:00,54.9,23.2,29.77,SSW,212,2.7,8.7,29,0.00,,---,0.04,VWS V14.01,2013-02-11 22:34:00,
2013-02-11 17:39:00,54.5,22.9,29.77,SE,142,4.0,4.0,29,0.00,,---,0.04,VWS V14.01,2013-02-11 22:39:00,
2013-02-11 17:44:00,54.5,21.2,29.80,West,262,9.2,12.8,27,0.00,,---,0.04,VWS V14.01,2013-02-11 22:44:00,
2013-02-11 17:49:00,54.7,22.2,29.80,SW,222,11.9,11.9,28,0.00,,---,0.04,VWS V14.01,2013-02-11 22:49:00,
2013-02-11 17:54:00,54.5,20.3,29.80,SW,229,11.0,11.0,26,0.00,,---,0.04,VWS V14.01,2013-02-11 22:54:00,
2013-02-11 17:59:00,54.3,20.2,29.77,SSW,193,10.5,10.5,26,0.00,,---,0.04,VWS V14.01,2013-02-11 22:59:00,
2013-02-11 18:04:00,54.3,20.2,29.77,WSW,238,11.4,11.9,26,0.00,,---,0.04,VWS V14.01,2013-02-11 23:04:00,
2013-02-11 18:09:00,54.5,20.3,29.77,SE,141,4.9,8.7,26,0.00,,---,0.04,VWS V14.01,2013-02-11 23:09:00,
2013-02-11 18:14:00,54.3,20.2,29.77,SSW,213,8.7,12.8,26,0.00,,---,0.04,VWS V14.01,2013-02-11 23:14:00,
2013-02-11 18:19:00,54.1,20.0,29.77,SW,233,8.1,8.1,26,0.00,,---,0.04,VWS V14.01,2013-02-11 23:19:00,
2013-02-11 18:24:00,53.6,18.6,29.77,SSE,155,8.7,10.5,25,0.00,,---,0.04,VWS V14.01,2013-02-11 23:24:00,
2013-02-11 18:29:00,53.4,19.4,29.77,SSW,201,3.6,4.9,26,0.00,,---,0.04,VWS V14.01,2013-02-11 23:29:00,
2013-02-11 18:34:00,53.2,19.3,29.77,SW,215,5.4,8.3,26,0.00,,---,0.04,VWS V14.01,2013-02-11 23:34:00,
2013-02-11 18:39:00,53.1,19.1,29.77,SSW,207,3.1,5.4,26,0.00,,---,0.04,VWS V14.01,2013-02-11 23:39:00,
2013-02-11 18:44:00,52.5,18.6,29.77,WSW,253,5.8,10.1,26,0.00,,---,0.04,VWS V14.01,2013-02-11 23:44:00,
2013-02-11 18:49:00,52.3,15.7,29.77,SW,227,8.1,9.6,23,0.00,,---,0.04,VWS V14.01,2013-02-11 23:49:00,
2013-02-11 18:54:00,52.2,18.3,29.77,East,95,8.7,8.7,26,0.00,,---,0.04,VWS V14.01,2013-02-11 23:54:00,
2013-02-11 18:59:00,52.0,18.2,29.77,SW,223,6.3,9.2,26,0.00,,---,0.04,VWS V14.01,2013-02-11 23:59:00,
2013-02-11 19:04:00,51.6,16.0,29.77,SW,221,3.6,8.1,24,0.00,,---,0.04,VWS V14.01,2013-02-12 00:04:00,
2013-02-11 19:09:00,51.6,16.0,29.77,SSW,213,3.6,8.3,24,0.00,,---,0.04,VWS V14.01,2013-02-12 00:09:00,
2013-02-11 19:15:00,51.6,16.0,29.77,SSW,198,8.1,12.8,24,0.00,,---,0.04,VWS V14.01,2013-02-12 00:15:00,
2013-02-11 19:20:00,51.4,15.9,29.77,SW,229,12.3,14.5,24,0.00,,---,0.04,VWS V14.01,2013-02-12 00:20:00,
2013-02-11 19:25:00,51.4,15.9,29.77,WSW,250,8.3,13.6,24,0.00,,---,0.04,VWS V14.01,2013-02-12 00:25:00,
2013-02-11 19:30:00,51.3,15.7,29.77,SW,230,8.1,8.1,24,0.00,,---,0.04,VWS V14.01,2013-02-12 00:30:00,
2013-02-11 19:35:00,50.9,15.4,29.77,WSW,240,5.4,7.6,24,0.00,,---,0.04,VWS V14.01,2013-02-12 00:35:00,
2013-02-11 19:40:00,50.9,15.4,29.77,WSW,258,5.4,5.8,24,0.00,,---,0.04,VWS V14.01,2013-02-12 00:40:00,
2013-02-11 19:45:00,50.9,15.4,29.80,WSW,245,8.3,8.3,24,0.00,,---,0.04,VWS V14.01,2013-02-12 00:45:00,
2013-02-11 19:50:00,50.7,15.3,29.80,SSW,212,5.8,6.3,24,0.00,,---,0.04,VWS V14.01,2013-02-12 00:50:00,
2013-02-11 19:55:00,50.4,14.9,29.80,SSW,212,8.1,8.1,24,0.00,,---,0.04,VWS V14.01,2013-02-12 00:55:00,
2013-02-11 20:00:00,50.4,14.9,29.80,SW,216,7.2,9.6,24,0.00,,---,0.04,VWS V14.01,2013-02-12 01:00:00,
2013-02-11 20:05:00,50.4,14.9,29.80,South,174,12.8,12.8,24,0.00,,---,0.04,VWS V14.01,2013-02-12 01:05:00,
2013-02-11 20:10:00,50.5,15.1,29.80,SW,218,8.1,8.1,24,0.00,,---,0.04,VWS V14.01,2013-02-12 01:10:00,
2013-02-11 20:15:00,50.7,15.3,29.80,South,185,8.1,8.1,24,0.00,,---,0.04,VWS V14.01,2013-02-12 01:15:00,
2013-02-11 20:20:00,50.4,14.9,29.80,SSE,162,2.2,8.3,24,0.00,,---,0.04,VWS V14.01,2013-02-12 01:20:00,
2013-02-11 20:25:00,49.8,14.5,29.80,South,187,3.1,6.3,24,0.00,,---,0.04,VWS V14.01,2013-02-12 01:25:00,
2013-02-11 20:30:00,49.1,13.9,29.80,East,96,0.0,0.0,24,0.00,,---,0.04,VWS V14.01,2013-02-12 01:30:00,
2013-02-11 20:35:00,48.6,13.4,29.80,North,357,0.0,2.7,24,0.00,,---,0.04,VWS V14.01,2013-02-12 01:35:00,
2013-02-11 20:40:00,48.0,11.0,29.80,North,9,4.0,7.2,22,0.00,,---,0.04,VWS V14.01,2013-02-12 01:40:00,
2013-02-11 20:46:00,48.6,10.4,29.80,SSW,201,2.7,3.1,21,0.00,,---,0.04,VWS V14.01,2013-02-12 01:46:00,
2013-02-11 20:51:00,48.0,11.0,29.80,SSW,201,2.7,4.0,22,0.00,,---,0.04,VWS V14.01,2013-02-12 01:51:00,
2013-02-11 20:56:00,47.5,10.6,29.80,West,274,3.1,8.3,22,0.00,,---,0.04,VWS V14.01,2013-02-12 01:56:00,
2013-02-11 21:01:00,47.8,10.9,29.80,SSW,212,4.9,6.3,22,0.00,,---,0.04,VWS V14.01,2013-02-12 02:01:00,
2013-02-11 21:06:00,48.0,11.0,29.80,SSW,205,6.3,6.3,22,0.00,,---,0.04,VWS V14.01,2013-02-12 02:06:00,
2013-02-11 21:11:00,47.7,10.7,29.80,SSW,211,4.0,4.0,22,0.00,,---,0.04,VWS V14.01,2013-02-12 02:11:00,
2013-02-11 21:16:00,47.7,10.7,29.80,SSW,210,7.2,7.2,22,0.00,,---,0.04,VWS V14.01,2013-02-12 02:16:00,
2013-02-11 21:21:00,47.8,10.9,29.80,WSW,244,2.7,4.0,22,0.00,,---,0.04,VWS V14.01,2013-02-12 02:21:00,
2013-02-11 21:26:00,47.8,10.9,29.83,SW,226,8.1,8.1,22,0.00,,---,0.04,VWS V14.01,2013-02-12 02:26:00,
2013-02-11 21:31:00,47.5,10.6,29.83,SW,214,6.3,8.3,22,0.00,,---,0.04,VWS V14.01,2013-02-12 02:31:00,
2013-02-11 21:36:00,47.5,10.6,29.83,SSE,151,6.3,6.3,22,0.00,,---,0.04,VWS V14.01,2013-02-12 02:36:00,
2013-02-11 21:41:00,47.5,10.6,29.83,South,183,8.1,8.3,22,0.00,,---,0.04,VWS V14.01,2013-02-12 02:41:00,
2013-02-11 21:46:00,47.7,7.4,29.83,WSW,247,10.5,12.8,19,0.00,,---,0.04,VWS V14.01,2013-02-12 02:46:00,
2013-02-11 21:51:00,47.5,7.3,29.83,WSW,237,6.3,10.1,19,0.00,,---,0.04,VWS V14.01,2013-02-12 02:51:00,
2013-02-11 21:56:00,47.1,7.0,29.83,ENE,77,5.4,8.7,19,0.00,,---,0.04,VWS V14.01,2013-02-12 02:56:00,
2013-02-11 22:01:00,47.1,7.0,29.83,WNW,284,2.2,2.7,19,0.00,,---,0.04,VWS V14.01,2013-02-12 03:01:00,
2013-02-11 22:06:00,46.2,9.5,29.83,SSW,203,2.7,2.7,22,0.00,,---,0.04,VWS V14.01,2013-02-12 03:06:00,
2013-02-11 22:11:00,45.1,8.6,29.83,NE,34,2.7,4.0,22,0.00,,---,0.04,VWS V14.01,2013-02-12 03:11:00,
2013-02-11 22:16:00,44.1,8.6,29.83,NE,49,2.7,4.0,23,0.00,,---,0.04,VWS V14.01,2013-02-12 03:16:00,
2013-02-11 22:21:00,43.3,8.0,29.83,SSE,164,3.1,4.9,23,0.00,,---,0.04,VWS V14.01,2013-02-12 03:21:00,
2013-02-11 22:27:00,43.5,8.2,29.83,WSW,255,2.7,2.7,23,0.00,,---,0.04,VWS V14.01,2013-02-12 03:27:00,
2013-02-11 22:32:00,43.5,8.2,29.83,SSE,166,2.2,2.7,23,0.00,,---,0.04,VWS V14.01,2013-02-12 03:32:00,
2013-02-11 22:37:00,42.8,7.6,29.83,NNE,26,3.1,3.1,23,0.00,,---,0.04,VWS V14.01,2013-02-12 03:37:00,
2013-02-11 22:42:00,41.7,9.4,29.83,ENE,75,2.2,3.1,26,0.00,,---,0.04,VWS V14.01,2013-02-12 03:42:00,
2013-02-11 22:47:00,40.8,8.6,29.83,NE,54,2.7,2.7,26,0.00,,---,0.04,VWS V14.01,2013-02-12 03:47:00,
2013-02-11 22:52:00,39.9,7.8,29.83,West,272,3.1,5.8,26,0.00,,---,0.04,VWS V14.01,2013-02-12 03:52:00,
2013-02-11 22:57:00,41.7,9.4,29.83,SW,222,4.0,4.0,26,0.00,,---,0.04,VWS V14.01,2013-02-12 03:57:00,
2013-02-11 23:02:00,42.4,7.3,29.83,West,271,3.6,8.3,23,0.00,,---,0.04,VWS V14.01,2013-02-12 04:02:00,
2013-02-11 23:07:00,42.8,9.4,29.83,South,191,0.0,3.6,25,0.00,,---,0.04,VWS V14.01,2013-02-12 04:07:00,
2013-02-11 23:12:00,42.4,10.0,29.86,South,178,0.0,0.0,26,0.00,,---,0.04,VWS V14.01,2013-02-12 04:12:00,
2013-02-11 23:17:00,42.1,7.0,29.86,SSW,195,4.5,8.7,23,0.00,,---,0.04,VWS V14.01,2013-02-12 04:17:00,
2013-02-11 23:22:00,42.4,10.0,29.86,WSW,243,5.8,5.8,26,0.00,,---,0.04,VWS V14.01,2013-02-12 04:22:00,
2013-02-11 23:27:00,42.6,10.1,29.86,SSE,166,3.1,5.8,26,0.00,,---,0.04,VWS V14.01,2013-02-12 04:27:00,
2013-02-11 23:32:00,42.6,10.1,29.86,WNW,293,0.0,0.0,26,0.00,,---,0.04,VWS V14.01,2013-02-12 04:32:00,
2013-02-11 23:37:00,42.3,9.8,29.86,WSW,253,2.2,5.4,26,0.00,,---,0.04,VWS V14.01,2013-02-12 04:37:00,
2013-02-11 23:42:00,41.4,10.7,29.86,NNE,24,0.0,0.0,28,0.00,,---,0.04,VWS V14.01,2013-02-12 04:42:00,
2013-02-11 23:47:00,40.6,10.1,29.86,ENE,74,0.0,0.0,28,0.00,,---,0.04,VWS V14.01,2013-02-12 04:47:00,
2013-02-11 23:52:00,39.7,9.3,29.86,NE,48,2.7,3.1,28,0.00,,---,0.04,VWS V14.01,2013-02-12 04:52:00,
2013-02-11 23:57:00,39.7,10.1,29.86,SSE,162,0.0,0.0,29,0.00,,---,0.04,VWS V14.01,2013-02-12 04:57:00,